�������l�o���
Date,Time,MP-1(��Sv/h),MP-2(��Sv/h),MP-3(��Sv/h),MP-4(��Sv/h),MP-5(��Sv/h),MP-6(��Sv/h),MP-7(��Sv/h),MP-8(��Sv/h),����,����(m/s),���J
2019/05/30,00:00,0.741,1.063,0.741,1.343,0.990,0.431,0.754,0.714,���k��,4.4,��
2019/05/30,00:10,0.742,1.064,0.740,1.343,0.988,0.431,0.753,0.716,���k��,4.3,��
2019/05/30,00:20,0.742,1.063,0.740,1.342,0.989,0.432,0.753,0.714,���k��,4.9,��
2019/05/30,00:30,0.740,1.066,0.740,1.345,0.991,0.429,0.755,0.713,���k��,4.2,��
2019/05/30,00:40,0.738,1.064,0.738,1.345,0.990,0.432,0.754,0.714,��,5.3,��
2019/05/30,00:50,0.740,1.063,0.738,1.343,0.990,0.431,0.753,0.715,���k��,4.2,��
2019/05/30,01:00,0.739,1.066,0.740,1.339,0.989,0.430,0.753,0.715,���k��,3.8,��
2019/05/30,01:10,0.738,1.061,0.740,1.345,0.989,0.430,0.755,0.714,�k��,3.0,��
2019/05/30,01:20,0.739,1.062,0.740,1.344,0.990,0.431,0.754,0.714,���k��,5.2,��
2019/05/30,01:30,0.739,1.063,0.738,1.343,0.989,0.431,0.754,0.716,�k��,6.3,��
2019/05/30,01:40,0.738,1.062,0.740,1.342,0.988,0.431,0.754,0.715,���k��,6.4,��
2019/05/30,01:50,0.737,1.064,0.739,1.345,0.989,0.432,0.753,0.715,�k��,5.0,��
2019/05/30,02:00,0.739,1.062,0.740,1.346,0.989,0.430,0.754,0.714,�k��,5.1,��
2019/05/30,02:10,0.739,1.062,0.740,1.344,0.988,0.432,0.754,0.714,�k��,5.8,��
2019/05/30,02:20,0.740,1.063,0.741,1.344,0.990,0.431,0.756,0.716,�k��,5.6,��
2019/05/30,02:30,0.739,1.063,0.740,1.343,0.989,0.431,0.754,0.716,�k��,6.1,��
2019/05/30,02:40,0.739,1.062,0.739,1.343,0.990,0.431,0.753,0.716,�k��,4.8,��
2019/05/30,02:50,0.741,1.063,0.740,1.345,0.991,0.431,0.754,0.715,�k�k��,3.3,��
2019/05/30,03:00,0.740,1.063,0.740,1.342,0.990,0.431,0.754,0.715,�k��,3.3,��
2019/05/30,03:10,0.739,1.065,0.740,1.344,0.989,0.430,0.754,0.714,���k��,2.0,��
2019/05/30,03:20,0.738,1.063,0.740,1.344,0.989,0.431,0.756,0.715,�쐼,1.7,��
2019/05/30,03:30,0.738,1.062,0.740,1.344,0.990,0.430,0.755,0.716,���쐼,4.5,��
2019/05/30,03:40,0.739,1.063,0.741,1.344,0.991,0.432,0.754,0.714,��,6.6,��
2019/05/30,03:50,0.740,1.064,0.739,1.342,0.990,0.432,0.754,0.716,���쐼,5.8,��
2019/05/30,04:00,0.740,1.065,0.739,1.345,0.988,0.431,0.754,0.715,���쐼,4.9,��
2019/05/30,04:10,0.738,1.064,0.740,1.343,0.989,0.430,0.756,0.715,��,2.5,��
2019/05/30,04:20,0.740,1.065,0.741,1.343,0.988,0.431,0.756,0.715,��,0.9,��
2019/05/30,04:30,0.738,1.064,0.739,1.344,0.989,0.432,0.755,0.715,�k��,1.2,��
2019/05/30,04:40,0.738,1.062,0.739,1.346,0.991,0.431,0.754,0.716,���k��,1.9,��
2019/05/30,04:50,0.739,1.065,0.740,1.343,0.991,0.432,0.754,0.713,-,CALM,��
2019/05/30,05:00,0.738,1.065,0.740,1.344,0.990,0.430,0.753,0.714,�쐼,1.2,��
2019/05/30,05:10,0.739,1.064,0.738,1.342,0.991,0.431,0.754,0.716,���쐼,1.2,��
2019/05/30,05:20,0.739,1.063,0.741,1.347,0.989,0.431,0.754,0.715,�쐼,2.0,��
2019/05/30,05:30,0.739,1.063,0.741,1.345,0.989,0.431,0.754,0.715,�쐼,3.0,��
2019/05/30,05:40,0.739,1.062,0.740,1.344,0.990,0.431,0.755,0.715,��,2.2,��
2019/05/30,05:50,0.741,1.065,0.741,1.345,0.991,0.432,0.755,0.716,���쐼,2.0,��
2019/05/30,06:00,0.740,1.066,0.738,1.347,0.990,0.431,0.756,0.715,��,1.2,��
2019/05/30,06:10,0.742,1.063,0.742,1.344,0.990,0.432,0.755,0.715,��쓌,2.0,��
2019/05/30,06:20,0.742,1.068,0.740,1.345,0.990,0.432,0.756,0.716,�쓌,2.3,��
2019/05/30,06:30,0.741,1.064,0.743,1.344,0.991,0.431,0.756,0.715,�쓌,2.3,��
2019/05/30,06:40,0.743,1.063,0.740,1.344,0.990,0.431,0.756,0.715,�쓌,1.5,��
2019/05/30,06:50,0.741,1.065,0.742,1.344,0.991,0.431,0.756,0.716,�쓌,2.3,��
2019/05/30,07:00,0.740,1.063,0.740,1.345,0.991,0.431,0.755,0.716,�쓌,1.7,��
2019/05/30,07:10,0.741,1.064,0.740,1.345,0.989,0.430,0.757,0.717,�쓌,0.6,��
2019/05/30,07:20,0.740,1.062,0.742,1.344,0.994,0.431,0.755,0.717,���쓌,1.5,��
2019/05/30,07:30,0.740,1.062,0.741,1.345,0.991,0.429,0.757,0.718,��,1.5,��
2019/05/30,07:40,0.741,1.065,0.741,1.347,0.991,0.430,0.755,0.718,�쓌,1.5,��
2019/05/30,07:50,0.740,1.065,0.741,1.345,0.993,0.431,0.755,0.715,�쓌,2.0,��
2019/05/30,08:00,0.738,1.067,0.742,1.349,0.993,0.431,0.754,0.716,�쓌,2.2,��
2019/05/30,08:10,0.742,1.066,0.743,1.348,0.994,0.432,0.755,0.714,�쓌,2.0,��
2019/05/30,08:20,0.740,1.066,0.740,1.346,0.992,0.429,0.755,0.713,�쓌,2.6,��
2019/05/30,08:30,0.745,1.065,0.744,1.348,0.993,0.431,0.754,0.719,��쓌,2.6,��
2019/05/30,08:40,0.742,1.065,0.743,1.350,0.991,0.431,0.756,0.723,�쓌,3.0,��
2019/05/30,08:50,0.740,1.065,0.740,1.348,0.993,0.431,0.756,0.721,��쓌,3.2,��
2019/05/30,09:00,0.745,1.069,0.742,1.349,0.993,0.430,0.755,0.720,��쓌,2.6,��
2019/05/30,09:10,0.743,1.069,0.743,1.347,0.994,0.430,0.757,0.718,�쓌,2.3,��
2019/05/30,09:20,0.744,1.068,0.740,1.346,0.993,0.431,0.757,0.716,�쓌,2.8,��
2019/05/30,09:30,0.744,1.069,0.743,1.348,0.993,0.432,0.757,0.716,�쓌,3.7,��
2019/05/30,09:40,0.745,1.069,0.738,1.347,0.994,0.432,0.757,0.717,�쓌,3.3,��
2019/05/30,09:50,0.746,1.071,0.739,1.346,0.997,0.432,0.758,0.717,��쓌,3.4,��
2019/05/30,10:00,0.746,1.073,0.742,1.347,0.995,0.433,0.757,0.718,��쓌,4.1,��
2019/05/30,10:10,0.745,1.072,0.741,1.348,0.996,0.433,0.759,0.718,��쓌,4.7,��
2019/05/30,10:20,0.744,1.074,0.743,1.350,0.996,0.432,0.755,0.717,��쓌,6.3,��
2019/05/30,10:30,0.748,1.071,0.743,1.350,1.001,0.432,0.758,0.716,��쓌,6.1,��
2019/05/30,10:40,0.748,1.072,0.742,1.351,0.999,0.434,0.758,0.719,��,6.5,��
2019/05/30,10:50,0.746,1.074,0.744,1.349,1.001,0.435,0.759,0.718,��쓌,6.8,��
2019/05/30,11:00,0.748,1.078,0.745,1.351,1.001,0.434,0.758,0.718,��쓌,5.9,��
2019/05/30,11:10,0.749,1.074,0.745,1.349,1.002,0.433,0.758,0.714,��쓌,6.4,��
2019/05/30,11:20,0.749,1.077,0.744,1.346,1.001,0.435,0.757,0.716,��쓌,7.6,��
2019/05/30,11:30,0.751,1.079,0.745,1.349,1.003,0.435,0.758,0.716,��쓌,6.6,��
2019/05/30,11:40,0.749,1.079,0.747,1.350,1.005,0.435,0.759,0.718,��쓌,6.9,��
2019/05/30,11:50,0.751,1.080,0.747,1.351,1.005,0.436,0.759,0.717,��쓌,6.4,��
2019/05/30,12:00,0.749,1.082,0.749,1.352,1.003,0.435,0.762,0.718,��,6.6,��
2019/05/30,12:10,0.749,1.083,0.747,1.350,1.004,0.433,0.758,0.716,��쓌,7.0,��
2019/05/30,12:20,0.750,1.081,0.748,1.352,1.007,0.436,0.759,0.716,��쓌,10.2,��
2019/05/30,12:30,0.751,1.083,0.748,1.351,1.009,0.437,0.759,0.717,��,7.2,��
2019/05/30,12:40,0.753,1.083,0.747,1.353,1.008,0.436,0.761,0.717,��쓌,9.6,��
2019/05/30,12:50,0.752,1.082,0.748,1.354,1.006,0.437,0.759,0.717,��,7.8,��
2019/05/30,13:00,0.751,1.085,0.749,1.352,1.008,0.439,0.758,0.718,��,8.1,��
2019/05/30,13:10,0.752,1.087,0.749,1.356,1.009,0.436,0.760,0.718,��,9.0,��
2019/05/30,13:20,0.751,1.078,0.749,1.356,1.010,0.437,0.761,0.717,��,8.2,��
2019/05/30,13:30,0.752,1.085,0.747,1.356,1.010,0.436,0.759,0.718,��쓌,9.2,��
2019/05/30,13:40,0.754,1.084,0.749,1.355,1.015,0.438,0.760,0.717,��,10.2,��
2019/05/30,13:50,0.754,1.083,0.750,1.356,1.013,0.438,0.759,0.717,��쓌,9.2,��
2019/05/30,14:00,0.751,1.085,0.748,1.355,1.010,0.438,0.760,0.717,��쓌,10.7,��
2019/05/30,14:10,0.753,1.086,0.750,1.356,1.011,0.437,0.759,0.717,��,10.5,��
2019/05/30,14:20,0.753,1.082,0.749,1.360,1.012,0.436,0.759,0.717,��쓌,11.0,��
2019/05/30,14:30,0.754,1.084,0.750,1.357,1.013,0.438,0.759,0.717,��쓌,10.5,��
2019/05/30,14:40,0.754,1.088,0.750,1.355,1.012,0.435,0.759,0.716,��,10.5,��
2019/05/30,14:50,0.752,1.090,0.748,1.358,1.014,0.437,0.760,0.716,��,10.7,��
2019/05/30,15:00,0.752,1.090,0.749,1.358,1.014,0.436,0.759,0.718,��쓌,10.6,��
2019/05/30,15:10,0.754,1.088,0.749,1.358,1.011,0.438,0.760,0.718,��쓌,11.8,��
2019/05/30,15:20,0.753,1.088,0.750,1.358,1.014,0.438,0.760,0.719,��쓌,10.0,��
2019/05/30,15:30,0.754,1.092,0.751,1.360,1.013,0.438,0.759,0.719,��쓌,13.8,��
2019/05/30,15:40,0.754,1.091,0.752,1.359,1.015,0.438,0.761,0.719,��쓌,12.0,��
2019/05/30,15:50,0.752,1.092,0.750,1.358,1.013,0.439,0.760,0.718,��,11.6,��
2019/05/30,16:00,0.754,1.092,0.751,1.361,1.017,0.438,0.760,0.718,��,11.3,��
2019/05/30,16:10,0.756,1.093,0.752,1.361,1.012,0.438,0.760,0.718,��,10.9,��
2019/05/30,16:20,0.755,1.092,0.749,1.362,1.014,0.438,0.761,0.717,��,9.5,��
2019/05/30,16:30,0.754,1.091,0.753,1.364,1.013,0.437,0.762,0.717,��,7.7,��
2019/05/30,16:40,0.756,1.094,0.753,1.361,1.016,0.437,0.760,0.718,��,9.1,��
2019/05/30,16:50,0.754,1.093,0.753,1.365,1.014,0.436,0.758,0.719,��,9.3,��
2019/05/30,17:00,0.754,1.092,0.752,1.362,1.015,0.436,0.760,0.720,��,7.1,��
2019/05/30,17:10,0.754,1.092,0.751,1.363,1.014,0.436,0.760,0.719,��,7.6,��
2019/05/30,17:20,0.754,1.093,0.753,1.363,1.013,0.437,0.760,0.718,��,9.0,��
2019/05/30,17:30,0.756,1.096,0.753,1.364,1.014,0.437,0.761,0.720,��,8.5,��
2019/05/30,17:40,0.756,1.096,0.750,1.364,1.014,0.439,0.761,0.719,��,7.7,��
2019/05/30,17:50,0.754,1.098,0.754,1.363,1.018,0.437,0.761,0.720,��,6.7,��
2019/05/30,18:00,0.754,1.097,0.752,1.365,1.018,0.439,0.759,0.722,��,6.9,��
2019/05/30,18:10,0.755,1.095,0.752,1.364,1.017,0.439,0.761,0.720,��,7.6,��
2019/05/30,18:20,0.755,1.098,0.754,1.365,1.017,0.438,0.761,0.721,��,7.5,��
2019/05/30,18:30,0.754,1.097,0.753,1.363,1.017,0.438,0.759,0.720,��,8.2,��
2019/05/30,18:40,0.755,1.096,0.753,1.364,1.019,0.439,0.759,0.722,��,8.8,��
2019/05/30,18:50,0.756,1.099,0.752,1.365,1.017,0.440,0.759,0.720,��,8.8,��
2019/05/30,19:00,0.755,1.098,0.754,1.364,1.018,0.439,0.761,0.721,��,9.4,��
2019/05/30,19:10,0.756,1.098,0.754,1.368,1.018,0.439,0.763,0.720,��,9.9,��
2019/05/30,19:20,0.758,1.099,0.756,1.366,1.018,0.438,0.761,0.720,��,8.6,��
2019/05/30,19:30,0.757,1.097,0.755,1.367,1.021,0.439,0.763,0.721,��쐼,7.2,��
2019/05/30,19:40,0.756,1.099,0.757,1.365,1.019,0.439,0.763,0.720,��,8.0,��
2019/05/30,19:50,0.759,1.099,0.755,1.367,1.018,0.439,0.762,0.721,��,7.7,��
2019/05/30,20:00,0.758,1.099,0.755,1.368,1.019,0.440,0.762,0.722,��,6.6,��
2019/05/30,20:10,0.756,1.099,0.756,1.367,1.020,0.439,0.765,0.721,��,7.6,��
2019/05/30,20:20,0.757,1.100,0.756,1.368,1.020,0.440,0.762,0.721,��,7.6,��
2019/05/30,20:30,0.757,1.099,0.756,1.369,1.021,0.439,0.762,0.721,��,9.6,��
2019/05/30,20:40,0.757,1.100,0.756,1.367,1.019,0.439,0.763,0.721,��,9.8,��
2019/05/30,20:50,0.756,1.100,0.755,1.368,1.021,0.439,0.764,0.721,��,10.3,��
2019/05/30,21:00,0.757,1.100,0.757,1.368,1.021,0.438,0.762,0.721,��,9.7,��
2019/05/30,21:10,0.756,1.102,0.755,1.368,1.021,0.438,0.762,0.721,��,9.5,��
2019/05/30,21:20,0.755,1.101,0.755,1.368,1.020,0.439,0.764,0.720,��,7.9,��
2019/05/30,21:30,0.757,1.098,0.755,1.368,1.020,0.439,0.763,0.720,��,9.0,��
2019/05/30,21:40,0.758,1.098,0.756,1.366,1.019,0.438,0.763,0.719,��,8.6,��
2019/05/30,21:50,0.757,1.099,0.756,1.367,1.020,0.439,0.763,0.720,��,9.2,��
2019/05/30,22:00,0.758,1.098,0.757,1.367,1.019,0.439,0.763,0.720,��,8.9,��
2019/05/30,22:10,0.758,1.099,0.756,1.368,1.018,0.439,0.761,0.721,��,7.6,��
2019/05/30,22:20,0.759,1.099,0.757,1.366,1.020,0.439,0.763,0.721,��,7.2,��
2019/05/30,22:30,0.757,1.099,0.755,1.369,1.020,0.437,0.763,0.720,��,8.3,��
2019/05/30,22:40,0.756,1.100,0.755,1.370,1.018,0.439,0.762,0.719,��쐼,7.8,��
2019/05/30,22:50,0.758,1.101,0.757,1.369,1.019,0.440,0.763,0.721,��,7.2,��
2019/05/30,23:00,0.758,1.099,0.754,1.371,1.020,0.439,0.763,0.721,��,6.0,��
2019/05/30,23:10,0.758,1.099,0.757,1.370,1.021,0.439,0.762,0.722,��,7.4,��
2019/05/30,23:20,0.754,1.103,0.756,1.367,1.022,0.440,0.763,0.721,��,7.4,��
2019/05/30,23:30,0.759,1.100,0.756,1.368,1.021,0.439,0.765,0.721,��,6.3,��
2019/05/30,23:40,0.758,1.098,0.756,1.368,1.021,0.438,0.762,0.720,��,6.8,��
2019/05/30,23:50,0.759,1.098,0.756,1.369,1.020,0.438,0.761,0.720,��쐼,7.5,��
